Regional Weather Roundup
Issued by NWS Upton, NY

Current Version | Previous Version | Text Only | Print | Product List | Glossary On
Versions: 1 2 3 4 5 6 7 8 9 10 11 12 13 14 15 16 17 18 19 20 21 22 23 24 25 26 27
000
ASUS41 KOKX 012304
RWROKX

REGIONAL WEATHER ROUNDUP
NATIONAL WEATHER SERVICE NEW YORK NY
700 PM EDT SUN MAY 01 2016

NOTE: "FAIR" INDICATES FEW OR NO CLOUDS BELOW 12,000 FEET WITH NO
SIGNIFICANT WEATHER AND/OR OBSTRUCTIONS TO VISIBILITY.

NYZ071-072-176-178-NJZ106-104-020000-
NEW YORK CITY METRO AREA


CITY           SKY/WX    TMP DP  RH WIND       PRES   REMARKS
CENTRAL PARK   CLOUDY    47  45  93 E9        30.13S FOG
LAGUARDIA APRT CLOUDY    49  45  86 NE12      30.10F FOG
KENNEDY INTL   DRIZZLE   47  45  93 NE13      30.11F FOG
NEWARK/LIBERTY LGT RAIN  44  44 100 NE7       30.10F FOG
BRNX BOT. GARD   N/A     46  45  93 SE7       30.12R
TETERBORO      DRIZZLE   48  44  86 E7        30.09F FOG
$$

NYZ177-179-078>081-020000-
LONG ISLAND NEW YORK

CITY           SKY/WX    TMP DP  RH WIND       PRES   REMARKS
FARMINGDALE    CLOUDY    45  42  89 NE9       30.11F FOG
ISLIP          LGT RAIN  44  41  89 NE8       30.12F FOG
SHIRLEY        CLOUDY    43  40  89 VRB6      30.14F
RIVERHEAD        N/A     43  41  93 SE3       30.14S
WESTHAMPTON    LGT RAIN  42  38  85 NE7       30.15F FOG
EAST HAMPTON   CLOUDY    40  38  92 NE7       30.15F
MONTAUK POINT    N/A     43  41  93 NE7       30.17F
$$

NYZ052-065-067-020000-
HUDSON VALLEY

CITY           SKY/WX    TMP DP  RH WIND       PRES   REMARKS
WHITE PLAINS   LGT RAIN  43  41  93 E9G20     30.10F FOG
NEWBURGH       CLOUDY    46  46 100 SE5       30.11S FOG
MONTGOMERY     CLOUDY    48  44  86 CALM      30.10S
POUGHKEEPSIE   LGT RAIN  47  42  83 E7        30.11S
ALBANY         CLOUDY    46  38  73 SE8       30.10F
$$

NJZ001-105-106-008-010-013-015-019>022-104-020000-
NEW JERSEY

CITY           SKY/WX    TMP DP  RH WIND       PRES   REMARKS
NEWARK/LIBERTY LGT RAIN  44  44 100 NE7       30.10F FOG
TETERBORO      DRIZZLE   48  44  86 E7        30.09F FOG
CALDWELL       CLOUDY    47  44  90 E6        30.10F FOG
MORRISTOWN     CLOUDY    46  46 100 NE3       30.10F FOG
SOMERVILLE     CLOUDY    48  46  93 E6        30.07F FOG
SUSSEX         CLOUDY    48  44  86 CALM      30.10S
ANDOVER          N/A     46  44  93 VRB3      30.08F
TRENTON        CLOUDY    50  47  89 E10       30.07S FOG
MILLVILLE      CLOUDY    53  52  96 NE3       30.04S FOG
ATLANTIC CITY  CLOUDY    52  51  97 NE8       30.04F FOG
WRIGHTSTOWN    NOT AVBL
TOMS RIVER     CLOUDY    48  46  93 NE9       30.07F
BELMAR         LGT RAIN  48  46  93 NE13      30.09S FOG
$$

PAZ047>061-062-071-020000-
EASTERN PENNSYLVANIA

CITY           SKY/WX    TMP DP  RH WIND       PRES   REMARKS
PHILADELPHIA   LGT RAIN  53  50  89 NE6       30.07S FOG
ALLENTOWN      CLOUDY    50  47  89 E6        30.08R FOG
SCRANTON       CLOUDY    49  44  83 VRB3      30.03F
$$

CTZ002-004>006-009-010-012-RIZ004-006-007-MAZ004-011-015-020000-
SOUTHERN NEW ENGLAND
 IN CT

CITY           SKY/WX    TMP DP  RH WIND       PRES   REMARKS
BRADLEY INTL   LGT RAIN  44  39  82 SE7       30.15F
HARTFORD       LGT RAIN  43  39  86 SE3       30.18S FOG
DANBURY        LGT RAIN  42  39  89 SE8       30.13F FOG
WTRBRY/OXFORD  CLOUDY    39  36  87 E8        30.15F FOG     WCI  34
BRIDGEPORT     LGT RAIN  44  41  89 E16       30.14F FOG
MERIDEN        LGT RAIN  43  39  86 SE6       30.16F
NEW HAVEN      LGT RAIN  41  39  93 NE7       30.16S FOG
CHESTER        LGT RAIN  41  39  93 CALM      30.16F VSB 1
GROTON         LGT RAIN  42  42 100 NE6       30.17F FOG
WILLIMANTIC    LGT RAIN  43  37  79 CALM      30.18F

 IN RI

CITY           SKY/WX    TMP DP  RH WIND       PRES   REMARKS
PROVIDENCE     LGT RAIN  43  37  79 SE5       30.20S
BLOCK ISLAND   LGT RAIN  41  40  96 E8        30.18F FOG
WESTERLY       LGT RAIN  43  39  86 E5        30.18F FOG

 IN MA

CITY           SKY/WX    TMP DP  RH WIND       PRES   REMARKS
BOSTON         RAIN      46  37  71 E9        30.20R
WORCESTER      LGT RAIN  40  35  83 S7        30.15F
WESTFIELD      LGT RAIN  42  39  89 CALM      30.16F
PROVINCETOWN   LGT RAIN  46  43  89 SE3       30.21F
NANTUCKET      CLOUDY    47  44  90 E6        30.18F
$$

ANZ330-335-338-340-345-350-353-355-020000-
COASTAL MARINE OBSERVATIONS


STATION/POSITION TIME  SKY/WX   TEMP    WIND        PRES    VSBY  WAVE
                                AIR SEA DIR/SP/G                  HT/PER
                 (UTC)          (F)     (DEG/KT/KT) (MB)    (MI)  (FT/S)
NY HARB ENTRANCE 2150            47 51   60/ 17/ 19 1018.5          4/ 9
20S FIRE ISLAND  2150            46 48   70/ 17/ 21 1018.5          4/ 8
GREAT SOUTH BAY  2200            46 56   70/ 14/ 19   N/A
23 SSW MONTAUK P 2250            44 47   70/ 16/ 19 1019.8          5/10
15 E BARNEGAT LI 2222               51                N/A           4/ 9
HUDSON CANYON    2150            51 48              1017.6          5/ 9
KINGS POINT      2200            47 53              1019.5
EXECUTION ROCKS  NOT AVBL
CENTRAL LI SOUND 2200            43      90/ 16/ 19   N/A           1/ 2
EASTERN LI SOUND 2200            43 48  100/ 10/ 14   N/A
ROBBINS REEF     2200            48      90/ 12/ 14 1018.6
$$


>>>>>>>>>>>>>>>>>>>>>>>>>>>> KEY <<<<<<<<<<<<<<<<<<<<<<<<<<<
>                                                          <
>     SKY/WX - SKY CONDITION/PRESENT WEATHER               <
>     TMP    - TEMPERATURE IN FAHRENHEIT                   <
>     DP     - DEWPOINT IN FAHRENHEIT                      <
>     RH     - RELATIVE HUMIDITY IN PERCENT                <
>     WIND   - DIRECTION AND SPEED IN MPH                  <
>     PRES   - MEAN SEA LEVEL PRESSURE IN INCHES OF HG     <
>     WCI    - WIND CHILL INDEX                            <
>     VSB    - VISIBILITY IN MILES                         <
>     HX     - HEAT INDEX                                  <
>     TC     - TEMPERATURE IN CELSIUS                      <
>     VRB    - VARIABLE WIND DIRECTION                     <
>                                                          <
>>>>>>>>>>>>>>>>>>>>>>>>>>>> KEY <<<<<<<<<<<<<<<<<<<<<<<<<<<






USA.gov is the U.S. government's official web portal to all federal, state and local government web resources and services.